Location: Julian California
(33.0790°N, 116.6010°W)
Time: 09:56:15
(UTC-07:00)

Cosmos 1697 Rocket - Pass Details

Date: 25 March 2019
Orbit: 833 x 842 km, 71.0° (Epoch: 18 April)

Event Time Altitude Azimuth Distance (km) Brightness Sun altitude
Rises 06:11:54 0° 329° (NNW) 3,385 5.6 -7.5°
Reaches altitude 10° 06:14:31 10° 320° (NW) 2,446 4.8 -6.9°
Maximum altitude 06:19:33 35° 256° (WSW) 1,312 3.2 -5.9°
Drops below altitude 10° 06:24:34 10° 192° (SSW) 2,430 4.9 -4.8°
Sets 06:27:10 0° 184° (S) 3,359 5.7 -4.3°
